[[{"header":{"parameterUnit":"m.s-1","parameterCategory":1,"la1":30.2991,"la2":30.254,"lo1":-89.0895,"lo2":-89.0444,"dy":0.0017,"dx":0.0017,"nx":28,"ny":28,"refTime":"2023-10-11T21:00:00:Z","depth":0,"parameterNumber":2,"parameterNumberName":"U-component_of_WINDS"},"data":[0,0,0,0,0,0,0,0,0,0,0,0,0,0,0,0,0,0,0,0,0,0,0,0,0,0,0,0,0,0,0,0,0,0,0,0,0,0,0,0,0,0,0,0,0,0,0,0,0,0,0,0,0,0,0,0,0,0,-0.1672,-0.1671,0,-0.1648,-0.1648,-0.1647,-0.1627,-0.1627,-0.1627,-0.1627,-0.1602,-0.1602,-0.1601,0,0,0,0,0,0,0,0,0,0,0,0,0,-0.1698,-0.1698,-0.1672,-0.1671,-0.1671,-0.1648,-0.1648,-0.1647,-0.1627,-0.1627,-0.1627,-0.1626,-0.1602,-0.1602,-0.1601,0,0,0,0,0,0,0,0,0,0,0,0,0,-0.1682,-0.1698,-0.1672,-0.1658,-0.1657,-0.1648,-0.1648,-0.1647,-0.1627,-0.1627,-0.1627,-0.1626,-0.1603,-0.1602,-0.1601,-0.1604,0,0,-0.1599,-0.1599,0,0,0,0,0,0,0,0,-0.1683,-0.1681,-0.1661,-0.1659,-0.1658,-0.164,-0.1648,-0.1633,-0.1627,-0.1639,-0.1627,-0.1626,-0.1615,-0.1613,-0.161,-0.1603,-0.1602,-0.1599,-0.1599,-0.1598,-0.1598,0,0,0,0,0,0,0,-0.1684,-0.1682,-0.1662,-0.166,-0.1658,-0.1653,-0.165,-0.1645,-0.1629,-0.1638,-0.1636,-0.1633,-0.1614,-0.161,-0.1609,-0.1601,-0.1599,-0.1599,-0.1598,-0.1598,-0.1594,-0.1594,0,0,0,0,0,0,-0.1687,-0.1683,-0.1663,-0.1662,-0.167,-0.1653,-0.165,-0.1646,-0.1629,-0.1626,-0.1634,-0.1633,-0.1612,-0.161,-0.1608,-0.1609,-0.1598,-0.1598,-0.1597,-0.1593,-0.1594,-0.1594,0,0,0,0,0,0,-0.1688,-0.1686,-0.1664,-0.1672,-0.1669,-0.1653,-0.1649,-0.1646,-0.1642,-0.1626,-0.1623,-0.1633,-0.1611,-0.1609,-0.1605,-0.1608,-0.1598,-0.1597,-0.1593,-0.1593,-0.1594,-0.1612,0,0,0,0,0,0,-0.1689,-0.1686,-0.1687,-0.1672,-0.1668,-0.1661,-0.1649,-0.1646,-0.1641,-0.1639,-0.1624,-0.1622,-0.1611,-0.1606,-0.1604,-0.1607,-0.1596,-0.1593,-0.1593,-0.1594,-0.1611,-0.1613,-0.1614,0,0,0,0,0,-0.169,-0.1694,-0.1687,-0.1685,-0.1669,-0.1662,-0.166,-0.1647,-0.1641,-0.1642,-0.1632,-0.1622,-0.1608,-0.1605,-0.1603,-0.1606,-0.1592,-0.1593,-0.1594,-0.161,-0.1612,-0.1614,0,0,0,0,0,0,-0.171,-0.1691,-0.1684,-0.1683,-0.1674,-0.1658,-0.1659,-0.165,-0.1642,-0.1641,-0.1626,-0.1623,-0.162,-0.1612,-0.161,-0.1607,-0.1599,-0.1599,-0.1612,-0.1614,-0.1616,-0.1618,-0.1596,0,0,0,0,0,-0.1714,-0.171,-0.1694,-0.1694,-0.169,-0.1675,-0.1671,-0.1662,-0.1652,-0.1648,-0.1638,-0.1628,-0.1621,-0.1617,-0.161,-0.1609,-0.1605,-0.161,-0.1612,-0.1613,-0.1614,-0.1612,-0.1613,-0.1596,-0.1596,-0.1596,0,0,-0.1723,-0.1712,-0.1711,-0.1698,-0.169,-0.1685,-0.1672,-0.1668,-0.1664,-0.1648,-0.1643,-0.1635,-0.1623,-0.162,-0.1618,-0.1614,-0.1617,-0.1614,-0.1616,-0.1615,-0.1612,-0.1614,-0.1616,-0.1596,-0.1596,-0.1596,0,0,-0.1737,-0.1729,-0.1728,-0.172,-0.1707,-0.1697,-0.1697,-0.1682,-0.1676,-0.1671,-0.1658,-0.1653,-0.1642,-0.1633,-0.1628,-0.1637,-0.1627,-0.1635,-0.1644,-0.1642,-0.1644,-0.1645,-0.1647,-0.1648,-0.1635,-0.1635,-0.1635,0,-0.175,-0.1742,-0.1728,-0.1725,-0.1719,-0.1703,-0.1702,-0.1695,-0.1681,-0.1677,-0.1672,-0.1657,-0.1648,-0.1642,-0.1644,-0.164,-0.1639,-0.1637,-0.1645,-0.1646,-0.1646,-0.1649,-0.165,-0.1636,-0.1636,-0.1636,-0.1636,0,-0.1758,-0.1753,-0.1754,-0.174,-0.1734,-0.1732,-0.1717,-0.1713,-0.1704,-0.1694,-0.1688,-0.1677,-0.1667,-0.1665,-0.1656,-0.1657,-0.1655,-0.1648,-0.1639,-0.1649,-0.1651,-0.1652,-0.1637,-0.1637,-0.1637,-0.1637,0,0,-0.1785,-0.1763,-0.1763,-0.1756,-0.1741,-0.1737,-0.1733,-0.1722,-0.1719,-0.1709,-0.1705,-0.1695,-0.1688,-0.1681,-0.1672,-0.167,-0.1677,-0.1663,-0.1662,-0.1665,-0.1676,-0.1682,-0.1683,-0.167,-0.167,-0.167,-0.1677,0,-0.1796,-0.1788,-0.1775,-0.1772,-0.1766,-0.1751,-0.1747,-0.1737,-0.1727,-0.1721,-0.171,-0.1703,-0.1694,-0.169,-0.1688,-0.1676,-0.1679,-0.1676,-0.1666,-0.1666,-0.1669,-0.1684,-0.169,-0.1697,-0.1678,-0.1678,-0.1678,0,-0.1808,-0.1799,-0.1795,-0.1779,-0.1776,-0.1773,-0.1762,-0.1756,-0.1744,-0.1737,-0.1729,-0.1718,-0.1712,-0.1704,-0.1695,-0.1694,-0.1689,-0.1682,-0.1682,-0.1681,-0.1673,-0.1683,-0.1699,-0.17,-0.1679,-0.1679,-0.1679,0,-0.1827,-0.1814,-0.1809,-0.1804,-0.1785,-0.1784,-0.1776,-0.1763,-0.1757,-0.1747,-0.1743,-0.1733,-0.1727,-0.1719,-0.1705,-0.17,-0.1697,-0.1688,-0.1691,-0.1691,-0.1691,-0.1691,-0.1707,-0.1688,-0.1688,-0.1688,-0.1688,0,-0.1841,-0.1839,-0.1818,-0.1815,-0.1812,-0.1796,-0.1794,-0.1784,-0.1773,-0.1767,-0.1753,-0.1748,-0.173,-0.1723,-0.1712,-0.1706,-0.1703,-0.1697,-0.1694,-0.1698,-0.1699,-0.1695,-0.1694,-0.1688,-0.1688,-0.1688,-0.1688,0,-0.1862,-0.1848,-0.1842,-0.1824,-0.182,-0.1818,-0.1803,-0.1799,-0.1788,-0.1781,-0.1779,-0.1762,-0.1752,-0.1737,-0.1724,-0.1716,-0.1712,-0.1707,-0.1716,-0.1714,-0.1717,-0.1717,-0.173,-0.1731,-0.1713,-0.1713,-0.1713,0,-0.1872,-0.187,-0.1851,-0.1847,-0.1839,-0.1832,-0.1826,-0.181,-0.1804,-0.1789,-0.1787,-0.1776,-0.1767,-0.1752,-0.1738,-0.1728,-0.1722,-0.1728,-0.1721,-0.1724,-0.1722,-0.1722,-0.1721,-0.1729,-0.173,-0.173,-0.173,0,-0.189,-0.1883,-0.1874,-0.1863,-0.1856,-0.1847,-0.1837,-0.1834,-0.1815,-0.1809,-0.1799,-0.1792,-0.1778,-0.1767,-0.1754,-0.1745,-0.1734,-0.1732,-0.1732,-0.1736,-0.1741,-0.1738,-0.172,-0.1732,-0.1732,-0.1732,-0.1732,-0.1732,-0.1905,-0.1902,-0.1889,-0.188,-0.187,-0.1861,-0.1856,-0.1844,-0.1836,-0.1823,-0.1814,-0.1804,-0.179,-0.1772,-0.1763,-0.1755,-0.175,-0.175,-0.175,-0.175,-0.1751,-0.1743,-0.1752,-0.1752,-0.1752,-0.1752,-0.1752,0,-0.1922,-0.1912,-0.1904,-0.189,-0.1883,-0.1873,-0.1861,-0.1855,-0.1847,-0.1835,-0.1826,-0.1814,-0.1803,-0.1788,-0.1776,-0.1772,-0.1767,-0.177,-0.177,-0.1767,-0.1757,-0.1758,-0.1774,-0.1774,-0.1774,-0.1774,-0.1774,-0.1774,-0.193,-0.1925,-0.1916,-0.1904,-0.1895,-0.1885,-0.1879,-0.187,-0.186,-0.1847,-0.1838,-0.1828,-0.1815,-0.1801,-0.179,-0.1786,-0.1782,-0.1786,-0.178,-0.177,-0.1768,-0.1767,-0.1767,-0.1785,-0.1785,-0.1792,-0.1792,-0.1792]},{"header":{"parameterUnit":"m.s-1","parameterCategory":1,"la1":30.2991,"la2":30.254,"lo1":-89.0895,"lo2":-89.0444,"dy":0.0017,"dx":0.0017,"nx":28,"ny":28,"refTime":"2023-10-11T21:00:00:Z","depth":0,"parameterNumber":3,"parameterNumberName":"V-component_of_WINDS"},"data":[0,0,0,0,0,0,0,0,0,0,0,0,0,0,0,0,0,0,0,0,0,0,0,0,0,0,0,0,0,0,0,0,0,0,0,0,0,0,0,0,0,0,0,0,0,0,0,0,0,0,0,0,0,0,0,0,0,0,-5.2993,-5.2994,0,-5.3068,-5.3069,-5.307,-5.3042,-5.304,-5.3039,-5.3037,-5.3108,-5.3112,-5.3115,0,0,0,0,0,0,0,0,0,0,0,0,0,-5.2821,-5.2824,-5.2993,-5.2994,-5.2995,-5.3068,-5.3069,-5.307,-5.3042,-5.304,-5.3038,-5.3036,-5.3107,-5.3111,-5.3116,0,0,0,0,0,0,0,0,0,0,0,0,0,-5.2896,-5.2825,-5.2993,-5.299,-5.299,-5.3068,-5.3069,-5.3071,-5.3043,-5.304,-5.3038,-5.3035,-5.3106,-5.3111,-5.3116,-5.32,0,0,-5.3132,-5.3134,0,0,0,0,0,0,0,0,-5.2892,-5.2902,-5.2989,-5.299,-5.2991,-5.3043,-5.3035,-5.3114,-5.3043,-5.3023,-5.3037,-5.3034,-5.3088,-5.3095,-5.3115,-5.3203,-5.3206,-5.3133,-5.3136,-5.3138,-5.314,0,0,0,0,0,0,0,-5.2887,-5.2899,-5.3023,-5.2991,-5.2992,-5.2984,-5.2991,-5.305,-5.3069,-5.3024,-5.3022,-5.3032,-5.3088,-5.311,-5.3116,-5.3207,-5.3132,-5.3137,-5.314,-5.3142,-5.3369,-5.3372,0,0,0,0,0,0,-5.2882,-5.2895,-5.302,-5.3025,-5.2934,-5.2989,-5.2998,-5.3029,-5.3068,-5.3072,-5.3034,-5.303,-5.3102,-5.311,-5.3118,-5.322,-5.3138,-5.3143,-5.3146,-5.3366,-5.337,-5.3373,0,0,0,0,0,0,-5.2878,-5.2893,-5.3017,-5.2959,-5.2975,-5.2995,-5.303,-5.3032,-5.3053,-5.3076,-5.3078,-5.3053,-5.31,-5.3111,-5.318,-5.3222,-5.3145,-5.315,-5.3363,-5.3368,-5.3372,-5.3423,0,0,0,0,0,0,-5.2873,-5.2892,-5.2925,-5.296,-5.2978,-5.3079,-5.3033,-5.3035,-5.3063,-5.3059,-5.3094,-5.3097,-5.3099,-5.3173,-5.3186,-5.3228,-5.3154,-5.3359,-5.3365,-5.337,-5.3417,-5.3428,-5.3437,0,0,0,0,0,-5.2867,-5.2934,-5.2926,-5.2942,-5.3019,-5.3082,-5.3091,-5.3094,-5.3066,-5.3099,-5.3114,-5.3096,-5.3215,-5.318,-5.3194,-5.3239,-5.3357,-5.3363,-5.337,-5.3413,-5.3426,-5.3437,0,0,0,0,0,0,-5.29,-5.2939,-5.293,-5.3011,-5.3044,-5.3077,-5.3118,-5.3108,-5.3147,-5.3141,-5.3141,-5.3149,-5.3221,-5.3237,-5.3197,-5.3322,-5.3282,-5.3291,-5.3309,-5.3322,-5.3332,-5.3327,-5.3158,0,0,0,0,0,-5.2917,-5.2966,-5.2997,-5.3065,-5.3082,-5.3098,-5.3125,-5.3124,-5.3157,-5.317,-5.319,-5.3221,-5.3266,-5.3295,-5.3337,-5.342,-5.3427,-5.3457,-5.3467,-5.3475,-5.3483,-5.353,-5.3544,-5.3394,-5.3394,-5.3394,0,0,-5.2952,-5.2979,-5.301,-5.3073,-5.3098,-5.3148,-5.3109,-5.3163,-5.3199,-5.3177,-5.3245,-5.3261,-5.3295,-5.3373,-5.3407,-5.3387,-5.3527,-5.3484,-5.349,-5.3494,-5.3538,-5.3552,-5.3564,-5.3399,-5.3398,-5.3397,0,0,-5.3041,-5.3067,-5.3128,-5.3155,-5.3194,-5.3204,-5.3219,-5.3255,-5.3265,-5.3333,-5.3319,-5.3361,-5.3438,-5.3464,-5.3487,-5.359,-5.3575,-5.3603,-5.3656,-5.3701,-5.3712,-5.3723,-5.376,-5.3773,-5.3611,-5.3612,-5.3612,0,-5.3079,-5.3155,-5.3159,-5.3216,-5.3244,-5.3229,-5.3291,-5.3316,-5.3366,-5.3386,-5.3363,-5.3461,-5.3483,-5.3567,-5.3592,-5.3611,-5.3628,-5.3599,-5.3711,-5.3721,-5.3731,-5.3766,-5.378,-5.3615,-5.3614,-5.3614,-5.3614,0,-5.32,-5.3253,-5.3297,-5.335,-5.3383,-5.3441,-5.3454,-5.3487,-5.3484,-5.3497,-5.3567,-5.3593,-5.3642,-5.3662,-5.3658,-5.3745,-5.3732,-5.371,-5.367,-5.3749,-5.3782,-5.3795,-5.362,-5.3618,-5.3617,-5.3617,0,0,-5.331,-5.3367,-5.3383,-5.3407,-5.3451,-5.3492,-5.355,-5.3599,-5.3628,-5.3664,-5.3712,-5.3779,-5.376,-5.3786,-5.3786,-5.3826,-5.3907,-5.3799,-5.38,-5.3819,-5.4005,-5.4021,-5.4037,-5.3898,-5.39,-5.3902,-5.4002,0,-5.3403,-5.3507,-5.3514,-5.3608,-5.3657,-5.3645,-5.3696,-5.3728,-5.3742,-5.3785,-5.3799,-5.3847,-5.3818,-5.3834,-5.3873,-5.3889,-5.3944,-5.3881,-5.3942,-5.3944,-5.3934,-5.4054,-5.4071,-5.4164,-5.4015,-5.4018,-5.4019,0,-5.3525,-5.3568,-5.3668,-5.3707,-5.3728,-5.3774,-5.3821,-5.3863,-5.3899,-5.3906,-5.3937,-5.3932,-5.3991,-5.3949,-5.403,-5.3987,-5.4013,-5.4024,-5.4028,-5.4033,-5.3986,-5.4063,-5.4194,-5.4208,-5.404,-5.4038,-5.4036,0,-5.3597,-5.3679,-5.375,-5.3771,-5.3818,-5.3851,-5.3872,-5.3906,-5.3936,-5.3976,-5.3996,-5.4042,-5.4067,-5.4103,-5.411,-5.4079,-5.4192,-5.415,-5.4199,-5.4199,-5.4222,-5.4221,-5.4359,-5.4239,-5.4239,-5.4238,-5.4238,0,-5.37,-5.3761,-5.3783,-5.3826,-5.3895,-5.3902,-5.3969,-5.3988,-5.4019,-5.4065,-5.4057,-5.41,-5.4107,-5.4152,-5.4157,-5.4224,-5.4235,-5.4242,-5.4243,-5.4243,-5.4242,-5.4259,-5.4253,-5.4242,-5.4241,-5.424,-5.424,0,-5.379,-5.3807,-5.3884,-5.3924,-5.3936,-5.3984,-5.4018,-5.4059,-5.4073,-5.4132,-5.4146,-5.4167,-5.4219,-5.4231,-5.4291,-5.4296,-5.4375,-5.4369,-5.4364,-5.4363,-5.4412,-5.4407,-5.4566,-5.4587,-5.4453,-5.4454,-5.4455,0,-5.3855,-5.3903,-5.3949,-5.3981,-5.4004,-5.4055,-5.4087,-5.4096,-5.4129,-5.4176,-5.4211,-5.4264,-5.4306,-5.439,-5.4409,-5.4457,-5.4452,-5.4505,-5.4459,-5.4458,-5.4453,-5.4451,-5.4456,-5.4513,-5.4514,-5.4516,-5.4517,0,-5.3969,-5.3976,-5.4023,-5.4075,-5.4114,-5.4153,-5.4191,-5.4217,-5.4232,-5.4269,-5.4325,-5.4358,-5.4422,-5.4474,-5.4522,-5.4541,-5.4532,-5.4531,-5.4545,-5.4546,-5.4541,-5.4545,-5.4388,-5.4527,-5.4526,-5.4525,-5.4525,-5.4524,-5.4049,-5.4091,-5.4132,-5.4185,-5.4216,-5.4252,-5.4294,-5.4314,-5.4361,-5.4416,-5.4418,-5.4479,-5.4515,-5.4579,-5.4602,-5.4648,-5.4631,-5.4651,-5.4656,-5.4661,-5.4666,-5.4534,-5.4657,-5.4656,-5.4656,-5.4656,-5.4656,0,-5.4162,-5.4189,-5.4238,-5.4294,-5.4336,-5.4326,-5.4368,-5.4403,-5.4457,-5.4493,-5.4536,-5.46,-5.4651,-5.4676,-5.4726,-5.4759,-5.4755,-5.4771,-5.4769,-5.4774,-5.4678,-5.4661,-5.4773,-5.4773,-5.4773,-5.4773,-5.4773,-5.4773,-5.4227,-5.4299,-5.4311,-5.4398,-5.4423,-5.4484,-5.451,-5.4543,-5.4572,-5.4645,-5.4688,-5.4705,-5.4737,-5.479,-5.4836,-5.4842,-5.4861,-5.4879,-5.4883,-5.4792,-5.478,-5.4769,-5.4753,-5.4883,-5.4883,-5.4975,-5.4976,-5.4977]}]]